Regional Weather Roundup
Issued by NWS

Home | Current Version | Previous Version | Graphics & Text | Print | Product List | Glossary On
Versions: 1 2 3 4 5 6 7 8 9 10 11 12 13 14 15 16 17 18 19 20 21 22 23 24 25 26 27 28 29 30 31 32 33 34 35 36 37 38 39 40 41 42 43 44 45 46 47 48 49 50
000
ASUS43 KMPX 062110
RWRMN
WEATHER ROUNDUP FOR MINNESOTA
NATIONAL WEATHER SERVICE TWIN CITIES/CHANHASSEN MN
400 PM CDT MON JUL 06 2015


NOTE: "FAIR" INDICATES FEW OR NO CLOUDS BELOW 12,000 FEET WITH NO
SIGNIFICANT WEATHER AND/OR OBSTRUCTIONS TO VISIBILITY. N/A MEANS
CURRENT SKY AND/OR WEATHER CONDITIONS ARE NOT AVAILABLE.

MNZ060>063-068>070-062200-
   Twin Cities Metro

CITY           SKY/WX    TMP DP  RH WIND       PRES   REMARKS
TWIN CITIES    CLOUDY    70  58  65 N15G24    29.94R SMOKE
ST PAUL        CLOUDY    70  58  65 N20G25    29.93S HAZE
CRYSTAL        CLOUDY    72  58  61 N16       29.92F HAZE
BLAINE         CLOUDY    70  63  78 N16G23    29.95S SMOKE
LAKEVILLE      MOSUNNY   66  57  72 N13G18    29.94R HAZE
EDEN PRAIRIE   CLOUDY    71  60  68 N14       29.93R HAZE
SOUTH ST PAUL  MOSUNNY   70  57  63 N13G23    29.93S HAZE
LAKE ELMO      CLOUDY    68  59  73 N14G20    29.94S HAZE
$$
MNZ001>005-007-008-013>017-022>024-027-028-062200-
   Northwest Minnesota

CITY           SKY/WX    TMP DP  RH WIND       PRES   REMARKS
BEMIDJI        CLOUDY    60  46  60 NW15      30.06R
HALLOCK        PTSUNNY   63  45  51 N14G25    30.10S
ROSEAU         CLOUDY    61  50  67 N8        30.07S
WARROAD        CLOUDY    61  46  59 NW10G20   30.07R
THIEF RVR FALL CLOUDY    61  43  51 N17       30.10R
CROOKSTON      MOSUNNY   64  50  59 N17G24    30.10S
FOSSTON        CLOUDY    59  45  58 N17       30.09S
DETROIT LAKES  MOSUNNY   63  45  51 N20G30    30.09R
MOORHEAD       SUNNY     66  48  52 N21G28    30.10S
PARK RAPIDS    CLOUDY    62  45  53 NW17      30.05R
MAHNOMEN       CLOUDY    61  46  57 NW18      30.08S
$$
MNZ006-009>011-018-025>026-062200-
   North Central Minnesota

CITY           SKY/WX    TMP DP  RH WIND       PRES   REMARKS
BAUDETTE       MOSUNNY   63  44  50 N16G25    30.03R
FLAG ISLAND    CLOUDY    61  43  51 N18G24    30.04R
INTL FALLS     CLOUDY    61  44  53 N9        30.02R
WASKISH        CLOUDY    61  46  59 NW9       30.05R
BIG FORK       PTSUNNY   61  46  59 N8        30.02R
LONGVILLE      PTSUNNY   63  48  59 W9G21     30.02S
GRAND RAPIDS   PTSUNNY   63  45  51 NW15G21   29.99R
CRANE LAKE     CLOUDY    61  46  59 N8        29.99R
COOK           PTSUNNY   64  48  55 N10       29.98S
WALKER         CLOUDY    58  45  62 NW5       30.05R
$$
MNZ012-019>021-037-062200-
   Northeast Minnesota

CITY           SKY/WX    TMP DP  RH WIND       PRES   REMARKS
DULUTH         PTSUNNY   65  55  70 NW8       29.93S SMOKE
ELY            PTSUNNY   64  48  55 NW12      29.95R
HIBBING        PTSUNNY   64  48  56 N14G22    29.97R
DULUTH HARBOR    N/A     64  63  94 CALM      29.93S FOG
TWO HARBORS    PTSUNNY   70  59  68 NW7       29.91S
SILVER BAY     PTSUNNY   66  55  68 NW8       29.91S HAZE
GRAND MARAIS     N/A     55  54  96 W6        29.90S
G MARAIS ARPRT   N/A     57  52  82 NW5       29.94R HAZE
$$
MNZ029>031-032-039>041-046>048-054>057-064-062200-
   West Central Minnesota

CITY           SKY/WX    TMP DP  RH WIND       PRES   REMARKS
FERGUS FALLS   MOSUNNY   66  46  48 N22G33    30.07R
WHEATON        MOSUNNY   66  50  55 NW20G28   30.09R
MORRIS         SUNNY     70  52  52 N25       30.04R
ALEXANDRIA     SUNNY     68  49  50 N20G28    30.05R
ELBOW LAKE     FAIR      67  50  54 NW26G32   30.05R
WADENA         PTSUNNY   64  46  52 N16G24    30.04R
GLENWOOD       SUNNY     70  52  52 NW16G22   30.03R
APPLETON       SUNNY     73  50  43 N22G28    30.04R
BENSON         SUNNY     72  52  49 N16G25    30.03R
ORTONVILLE     SUNNY     70  52  52 N21G28    30.05S
MADISON        SUNNY     72  54  53 N17G25    30.04S
WILLMAR        FAIR      73  54  49 NW22G29   30.01S
$$
MNZ033>034-036-042>043-049>051-058-059-062200-
   Central Minnesota

CITY           SKY/WX    TMP DP  RH WIND       PRES   REMARKS
ST CLOUD       MOSUNNY   72  56  57 NW14      29.96S HAZE
SAUK CENTRE    FAIR      69  51  51 NW18G28   30.01R
PAYNESVILLE    SUNNY     70  50  48 W15G23    29.99S
AITKIN         MOSUNNY   70  54  56 NW8       29.97R
PINE RIVER     MOSUNNY   64  48  55 NW12      30.05R
BRAINERD       MOSUNNY   69  48  47 N22G28    29.99R
STAPLES        MOSUNNY   66  46  48 NW15G25   30.02R
LONG PRAIRIE   FAIR      68  50  52 NW10G21   30.02R
LITTLE FALLS   SUNNY     72  48  43 NW15G22   29.97S HAZE
LITCHFIELD     SUNNY     73  59  60 N18       29.98S HAZE
BUFFALO          N/A     72  57  60 N12G20    29.96S HAZE
MAPLE LAKE     SUNNY     72  60  65 NW10      29.97S HAZE
$$
MNZ037-044-045-052-053-062200-
   East Central Minnesota

CITY           SKY/WX    TMP DP  RH WIND       PRES   REMARKS
PRINCETON      MOSUNNY   73  59  60 N13       29.96S HAZE
MORA           MOSUNNY   70  55  60 NW13G18   29.97R
CAMBRIDGE        N/A     72  57  60 N8G16     29.93S HAZE
RUSH CITY      PTSUNNY   67  59  76 N6        29.94S
MOOSE LAKE     SUNNY     68  54  60 N5        29.93S
HINCKLEY       MOCLDY    68  59  73 N9        29.94S HAZE
CLOQUET        PTSUNNY   68  54  60 NW9G17    29.94S
MCGREGOR       PTSUNNY   70  52  52 NW10G18   29.96S
$$
MNZ071>073-080-081-089-090-097-098-062200-
   Southwest Minnesota

CITY           SKY/WX    TMP DP  RH WIND       PRES   REMARKS
GRANITE FALLS  MOSUNNY   73  57  57 NW15G24   30.03R
CANBY          MOSUNNY   70  54  57 N20       30.06R
MARSHALL       MOSUNNY   72  54  53 N21G30    30.01S
REDWOOD FALLS  CLOUDY    74  58  57 N16G23    29.98S HAZE
OLIVIA         MOSUNNY   72  55  56 N20G26    29.99R HAZE
PIPESTONE      SUNNY     72  55  56 N13G21    30.04R HAZE
WINDOM         MOSUNNY   73  61  64 N14G24    29.99R HAZE
WORTHINGTON    CLOUDY    72  57  60 N21G29    30.01R
JACKSON          N/A     72  61  68 VRB15G23  29.99R HAZE
TRACY          MOSUNNY   72  61  67 N16G26    30.02R HAZE
SLAYTON        MOSUNNY   70  60  70 N21G29    30.03R HAZE
$$
MNZ065>067-074>077-082>085-091>093-062200-
   South Central Minnesota

CITY           SKY/WX    TMP DP  RH WIND       PRES   REMARKS
MANKATO        CLOUDY    72  57  60 N17G25    29.95R
NEW ULM        MOSUNNY   73  57  56 N12G20    29.95S HAZE
ST JAMES       MOSUNNY   73  63  68 N15G21    29.97S HAZE
FAIRMONT       CLOUDY    72  57  60 N18G24    29.96R
GLENCOE        CLOUDY    72  63  73 N16       29.95S HAZE
FARIBAULT      PTSUNNY   68  61  77 N12G22    29.94R
OWATONNA       PTSUNNY   68  57  68 N17G25    29.94R HAZE
WASECA         CLOUDY    68  59  73 N13G20    29.96R HAZE
ALBERT LEA       N/A     70  59  68 N14G30    29.93R HAZE
$$
MNZ078>079-086>088-094>096-062200-
   Southeast Minnesota

CITY           SKY/WX    TMP DP  RH WIND       PRES   REMARKS
ROCHESTER      CLOUDY    67  63  87 N23G29    29.91R FOG
RED WING       PTSUNNY   66  59  77 N15G25    29.90R HAZE
STANTON        PTSUNNY   68  59  73 VRB16G24  29.92R
DODGE CENTER   PTSUNNY   66  61  82 N21G28    29.93R HAZE
WINONA         CLOUDY    70  66  88 NW13G22   29.85R
AUSTIN         PTSUNNY   72  61  68 N17G29    29.91R HAZE
PRESTON        CLOUDY    66  63  90 N17G24    29.86R
$$
ABBREVIATIONS USED IN REMARKS
   TC - TEMPERATURES IN CELSIUS
  WCI - WIND CHILL INDEX
   HX - HEAT INDEX
  VSB - VISIBILITY
$$


USA.gov is the U.S. government's official web portal to all federal, state and local government web resources and services.